Regional Weather Roundup
Issued by NWS Green Bay, WI

Home | Current Version | Previous Version | Graphics & Text | Print | Product List | Glossary Off
Versions: 1 2 3 4 5 6 7 8 9 10 11 12 13 14 15 16 17 18 19 20 21 22 23 24 25 26 27 28 29 30 31 32 33 34 35 36 37 38 39 40 41 42 43 44 45 46 47 48 49 50

000
ASUS43 KGRB 210859
RWRGRB

NORTH-CENTRAL AND NORTHEAST WISCONSIN REGIONAL WEATHER ROUNDUP
NATIONAL WEATHER SERVICE GREEN BAY WI
400 AM CDT MON APR 21 2014

WIZ005-009-010>012-018-019-211000-
NORTH CENTRAL WISCONSIN

CITY           SKY/WX    TMP DP  RH WIND       PRES   REMARKS
IRONWOOD       PTCLDY    34  27  75 E3        29.90F
MANITOWISH WTR NOT AVBL
ARBOR VITAE    NOT AVBL
EAGLE RIVER    NOT AVBL
LAND O LAKES   NOT AVBL
RHINELANDER    FOG       40  40 100 CALM      29.95F VSB 1/4
PHILLIPS       NOT AVBL
ANTIGO         NOT AVBL
TOMAHAWK       NOT AVBL
MERRILL        NOT AVBL
$$

WIZ013-073-211000-
NORTHEAST WISCONSIN

CITY           SKY/WX    TMP DP  RH WIND       PRES   REMARKS
IRON MOUNTAIN  FOG       40  40 100 NW3       29.93F VSB 1/4
MARINETTE      CLOUDY    39  37  93 E3        29.94R
$$

WIZ017-030-035>037-045-211000-
CENTRAL WISCONSIN

CITY           SKY/WX    TMP DP  RH WIND       PRES   REMARKS
MEDFORD        NOT AVBL
WAUSAU         CLOUDY    52  51  97 NW3       29.94R FOG
MOSINEE        NOT AVBL
MARSHFIELD     FOG       52  51  97 CALM      29.94F VSB 1
WISC RAPIDS    LGT RAIN  51  51 100 S3        29.95S VSB 3/4
STEVENS POINT  NOT AVBL
WAUPACA        NOT AVBL
SHAWANO        NOT AVBL
CLINTONVILLE   NOT AVBL
$$

WIZ038-039-048-051-211000-
FOX VALLEY

CITY           SKY/WX    TMP DP  RH WIND       PRES   REMARKS
NWS GREEN BAY  LGT RAIN  48  48 100 E6        29.94F FOG
APPLETON       NOT AVBL
OSHKOSH        CLOUDY    50  47  89 CALM      29.93F FOG
FOND DU LAC    CLOUDY    49  46  90 CALM      29.94S
$$

WIZ022-050-052-211000-
EAST CENTRAL WISCONSIN

CITY           SKY/WX    TMP DP  RH WIND       PRES   REMARKS
STURGEON BAY   CLOUDY    45  39  81 CALM      29.94S
MANITOWOC      NOT AVBL
SHEBOYGAN      CLOUDY    45  41  86 CALM      29.93S
$$

LMZ563-521-522-541>543-211000-
LAKESHORE

STATION/POSITION TIME  TEMP    WIND        PRES    VSBY  WAVE
                       AIR SEA DIR/SP/G                  HT/PER
                 (UTC) (F)     (DEG/KT/KT) (MB)    (MI)  (FT/S)
SHEBOYGAN LKSHOR 0800   44     330/  2/  3 1014.3F
KEWAUNEE LKSHORE 0800   40     300/  4/  5 1014.7F
NORTHPORT PIER   0800   39      CALM  /  1 1014.6F
SISTER BAY LKSHO 0800   42      CALM  /  3   N/A
MENOMINEE LKSHOR 0800   35     350/  4/  5 1014.5F
$$



USA.gov is the U.S. government's official web portal to all federal, state and local government web resources and services.